This is the latest recevied weather packets stored in our database for station/object N5ATR. If no packets are shown the sender has not sent any weather packets the latest 10 day(s).
| Time | Temp. | Humidity | Pressure | Rain* | Wind** | Luminosity | Snow |
|---|---|---|---|---|---|---|---|
| 1777226212 | 18.89° C | 29% | 1007.5 hPa | 0 mm | - | 886 W/m² | - |
| 1777225908 | 17.22° C | 30% | 1007.5 hPa | 0 mm | - | 871 W/m² | - |
| 1777225604 | 17.78° C | 30% | 1007.7 hPa | 0 mm | - | 576 W/m² | - |
| 1777225301 | 17.22° C | 31% | 1008 hPa | 0 mm | - | 830 W/m² | - |
| 1777224998 | 16.67° C | 32% | 1007.7 hPa | 0 mm | - | 844 W/m² | - |
| 1777224696 | 17.22° C | 32% | 1007.9 hPa | 0 mm | - | 766 W/m² | - |
| 1777224395 | 16.67° C | 32% | 1008 hPa | 0 mm | - | 772 W/m² | - |
| 1777224092 | 16.67° C | 33% | 1008.2 hPa | 0 mm | - | 732 W/m² | - |
| 1777223789 | 17.22° C | 33% | 1008.5 hPa | 0 mm | - | 727 W/m² | - |
| 1777223485 | 16.67° C | 33% | 1008.4 hPa | 0 mm | - | 711 W/m² | - |
| 1777223183 | 16.67° C | 33% | 1008.5 hPa | 0 mm | - | 733 W/m² | - |
| 1777222880 | 17.22° C | 33% | 1008.4 hPa | 0 mm | - | 696 W/m² | - |
| 1777222577 | 16.67° C | 33% | 1008.7 hPa | 0 mm | - | 753 W/m² | - |
| 1777222275 | 16.67° C | 34% | 1008.5 hPa | 0 mm | - | 664 W/m² | - |
| 1777221973 | 16.67° C | 33% | 1008.6 hPa | 0 mm | - | 654 W/m² | - |
| 1777221668 | 16.67° C | 33% | 1008.9 hPa | 0 mm | - | 647 W/m² | - |
| 1777221365 | 16.11° C | 34% | 1008.7 hPa | 0 mm | - | 627 W/m² | - |
| 1777221063 | 16.11° C | 34% | 1008.9 hPa | 0 mm | - | 615 W/m² | - |
| 1777220762 | 15.56° C | 34% | 1009 hPa | 0 mm | - | 607 W/m² | - |
| 1777220459 | 15.56° C | 35% | 1008.9 hPa | 0 mm | - | 589 W/m² | - |
| 1777220158 | 15.56° C | 34% | 1009 hPa | 0 mm | - | 590 W/m² | - |
| 1777219855 | 15.56° C | 35% | 1009.1 hPa | 0 mm | - | 571 W/m² | - |
| 1777219553 | 15.56° C | 35% | 1009 hPa | 0 mm | - | 557 W/m² | - |
| 1777219249 | 15.56° C | 35% | 1009 hPa | 0 mm | - | 544 W/m² | - |
| 1777218944 | 15° C | 36% | 1009.2 hPa | 0 mm | - | 409 W/m² | - |
* Rain latest hour (hover to see other rain measurements)
** Current wind speed in m/s (hover to see current wind gust speed)